Location: Aalen
(48.8330°N, 10.1000°E)
Time: 04:59:45
(UTC+02:00)

Transit 2A - Pass Details

Date: 03 August 2021
Orbit: 594 x 964 km, 66.7° (Epoch: 27 September)

Event Time Altitude Azimuth Distance (km) Brightness Sun altitude
Rises 07:47:29 0° 225° (SW) 2,845 8.5 16.5°
Reaches altitude 10° 07:49:41 10° 228° (SW) 1,967 7.7 16.9°
Maximum altitude 07:54:03 61° 310° (NW) 732 6.0 17.6°
Drops below altitude 10° 07:58:48 10° 31° (NNE) 2,139 8.9 18.4°
Sets 08:01:16 0° 35° (NE) 3,118 9.8 18.8°
